EW8215 Weather Reports


Display with metric or nautical units.
time (UTC)temp
F
wind
direction
speed
MPH
gust
MPH
rain 1hr
in
rain 24hr
in
rain mn
in
humidity
%
barometer
mb
20260831231101 98 136 5.0 7.0 0.00 0.00 0.00 37 1013.8
20260831230557 99 95 9.0 12.0 0.00 0.00 0.00 37 1013.8
20260831230051 99 117 4.0 7.0 0.00 0.00 0.00 37 1013.6
20260831225547 100 192 10.0 12.0 0.00 0.00 0.00 36 1013.8
20260831225041 100 121 2.0 3.0 0.00 0.00 0.00 36 1013.8
20260831224536 100 159 2.0 3.0 0.00 0.00 0.00 35 1013.8
20260831224032 100 159 7.0 10.0 0.00 0.00 0.00 34 1013.9
20260831223526 100 172 6.0 7.0 0.00 0.00 0.00 35 1014.0
20260831223023 100 155 4.0 7.0 0.00 0.00 0.00 35 1014.0
20260831222519 99 138 4.0 5.0 0.00 0.00 0.00 36 1013.9
20260831222018 100 143 4.0 5.0 0.00 0.00 0.00 36 1013.8
20260831221515 100 155 3.0 3.0 0.00 0.00 0.00 36 1014.0
20260831221009 101 157 6.0 7.0 0.00 0.00 0.00 35 1013.8
20260831220505 100 182 3.0 5.0 0.00 0.00 0.00 36 1013.9
20260831220000 102 118 4.0 9.0 0.00 0.00 0.00 34 1013.9
20260831215455 101 160 4.0 5.0 0.00 0.00 0.00 35 1014.0
20260831214951 100 159 1.0 2.0 0.00 0.00 0.00 34 1014.2
20260831214449 99 101 2.0 3.0 0.00 0.00 0.00 36 1014.1
20260831213945 98 161 1.0 3.0 0.00 0.00 0.00 35 1014.2
20260831213441 97 140 0.0 2.0 0.00 0.00 0.00 38 1014.2
20260831212940 97 147 3.0 3.0 0.00 0.00 0.00 39 1014.2
20260831212437 98 156 5.0 5.0 0.00 0.00 0.00 39 1014.5
20260831211936 100 203 4.0 5.0 0.00 0.00 0.00 36 1014.5
20260831211426 99 156 2.0 3.0 0.00 0.00 0.00 37 1014.6
20260831210920 97 225 6.0 9.0 0.00 0.00 0.00 39 1014.5
20260831210415 98 148 2.0 3.0 0.00 0.00 0.00 39 1014.5
20260831205911 99 222 6.0 9.0 0.00 0.00 0.00 38 1014.8
20260831205407 100 157 7.0 9.0 0.00 0.00 0.00 38 1014.8
20260831204906 98 230 4.0 5.0 0.00 0.00 0.00 38 1014.9
20260831204406 97 123 3.0 5.0 0.00 0.00 0.00 40 1015.0
20260831203905 98 158 2.0 3.0 0.00 0.00 0.00 40 1015.1
20260831203400 99 141 6.0 9.0 0.00 0.00 0.00 39 1015.2
20260831202858 100 175 5.0 7.0 0.00 0.00 0.00 39 1015.3
20260831202354 100 176 6.0 9.0 0.00 0.00 0.00 38 1015.2
20260831201853 96 168 0.0 0.0 0.00 0.00 0.00 40 1015.5
20260831201352 96 172 4.0 7.0 0.00 0.00 0.00 41 1015.6
20260831200848 98 172 6.0 7.0 0.00 0.00 0.00 41 1015.5
20260831200343 100 176 1.0 2.0 0.00 0.00 0.00 38 1015.4
20260831195838 99 125 2.0 5.0 0.00 0.00 0.00 38 1015.7
20260831195334 100 156 11.0 15.0 0.00 0.00 0.00 40 1015.7
20260831194829 100 161 6.0 9.0 0.00 0.00 0.00 38 1015.9
20260831194324 101 158 2.0 5.0 0.00 0.00 0.00 37 1015.6
20260831193823 100 176 2.0 2.0 0.00 0.00 0.00 38 1015.8
20260831193319 100 230 8.0 10.0 0.00 0.00 0.00 38 1015.9
20260831192814 100 179 3.0 5.0 0.00 0.00 0.00 39 1015.9
20260831192309 99 160 0.0 0.0 0.00 0.00 0.00 38 1016.0
20260831191805 99 93 3.0 7.0 0.00 0.00 0.00 38 1016.1
20260831191301 98 107 7.0 9.0 0.00 0.00 0.00 39 1016.1
20260831190756 100 143 7.0 9.0 0.00 0.00 0.00 39 1016.3
20260831190256 99 124 4.0 7.0 0.00 0.00 0.00 40 1016.3
20260831185750 99 164 4.0 5.0 0.00 0.00 0.00 41 1016.5
20260831185246 98 161 1.0 3.0 0.00 0.00 0.00 42 1016.4
20260831184745 100 134 4.0 7.0 0.00 0.00 0.00 41 1016.5
20260831184241 99 171 7.0 9.0 0.00 0.00 0.00 43 1016.5
20260831183741 99 150 4.0 10.0 0.00 0.00 0.00 42 1016.8
20260831183235 98 123 6.0 7.0 0.00 0.00 0.00 44 1016.8
20260831182734 98 188 5.0 7.0 0.00 0.00 0.00 43 1016.8
20260831182230 98 113 7.0 9.0 0.00 0.00 0.00 43 1016.7
20260831181730 97 201 6.0 9.0 0.00 0.00 0.00 45 1016.8
20260831181225 98 173 4.0 5.0 0.00 0.00 0.00 47 1016.8
20260831180720 97 126 2.0 3.0 0.00 0.00 0.00 46 1016.8
20260831180215 96 90 3.0 5.0 0.00 0.00 0.00 46 1017.2
20260831175714 95 134 3.0 5.0 0.00 0.00 0.00 47 1017.3
20260831175211 96 158 7.0 12.0 0.00 0.00 0.00 48 1017.1
20260831174711 96 119 4.0 7.0 0.00 0.00 0.00 46 1017.2
20260831174207 96 147 5.0 5.0 0.00 0.00 0.00 46 1017.3
20260831173705 96 145 5.0 7.0 0.00 0.00 0.00 44 1017.4
20260831173201 96 111 5.0 7.0 0.00 0.00 0.00 47 1017.4
20260831172700 96 136 3.0 3.0 0.00 0.00 0.00 49 1017.4
20260831172156 97 163 5.0 7.0 0.00 0.00 0.00 50 1017.7
20260831171650 96 195 2.0 3.0 0.00 0.00 0.00 50 1017.9
20260831171148 94 157 3.0 5.0 0.00 0.00 0.00 52 1017.7
20260831170644 95 163 2.0 3.0 0.00 0.00 0.00 51 1017.9
20260831170141 94 184 3.0 7.0 0.00 0.00 0.00 53 1018.1
20260831165636 93 127 4.0 5.0 0.00 0.00 0.00 54 1017.9
20260831165133 93 137 7.0 9.0 0.00 0.00 0.00 55 1018.0
20260831164629 93 137 7.0 7.0 0.00 0.00 0.00 56 1018.1
20260831164124 94 121 4.0 7.0 0.00 0.00 0.00 53 1017.9
20260831163619 93 157 7.0 10.0 0.00 0.00 0.00 56 1018.1
20260831163115 93 159 2.0 3.0 0.00 0.00 0.00 57 1018.1
20260831162614 91 166 1.0 3.0 0.00 0.00 0.00 60 1017.9
20260831162111 92 168 4.0 5.0 0.00 0.00 0.00 60 1018.1
20260831161602 92 215 5.0 7.0 0.00 0.00 0.00 58 1018.1
20260831161058 91 173 2.0 3.0 0.00 0.00 0.00 61 1018.1
20260831160557 90 204 5.0 5.0 0.00 0.00 0.00 62 1018.0
20260831160053 89 234 3.0 5.0 0.00 0.00 0.00 63 1018.2
20260831155553 89 157 2.0 3.0 0.00 0.00 0.00 67 1017.8
20260831155048 89 152 0.0 0.0 0.00 0.00 0.00 67 1018.0
20260831154544 90 171 4.0 5.0 0.00 0.00 0.00 64 1018.0
20260831154038 90 223 1.0 2.0 0.00 0.00 0.00 64 1017.9
20260831153532 89 188 3.0 3.0 0.00 0.00 0.00 66 1017.9
20260831153029 88 140 4.0 5.0 0.00 0.00 0.00 68 1018.0
20260831152524 89 81 2.0 3.0 0.00 0.00 0.00 69 1017.9
20260831152019 86 188 6.0 9.0 0.00 0.00 0.00 71 1017.9
20260831151513 86 190 4.0 7.0 0.00 0.00 0.00 72 1017.8
20260831151008 87 203 6.0 9.0 0.00 0.00 0.00 72 1017.7
20260831150503 87 184 3.0 3.0 0.00 0.00 0.00 73 1017.8
20260831150003 87 199 4.0 5.0 0.00 0.00 0.00 73 1017.7
20260831145459 87 222 6.0 10.0 0.00 0.00 0.00 72 1017.8
20260831144954 87 168 4.0 5.0 0.00 0.00 0.00 75 1017.7
20260831144444 86 232 4.0 7.0 0.00 0.00 0.00 77 1017.7
20260831143939 86 221 1.0 3.0 0.00 0.00 0.00 77 1017.7
20260831143434 85 234 2.0 3.0 0.00 0.00 0.00 79 1017.5
20260831142930 85 232 5.0 5.0 0.00 0.00 0.00 80 1017.6
20260831142427 84 201 4.0 7.0 0.00 0.00 0.00 81 1017.7
20260831141925 84 194 4.0 5.0 0.00 0.00 0.00 82 1017.6
20260831141419 83 159 0.0 2.0 0.00 0.00 0.00 83 1017.8
20260831140914 83 172 2.0 5.0 0.00 0.00 0.00 83 1017.6
20260831140409 83 154 2.0 3.0 0.00 0.00 0.00 83 1017.6
20260831135908 82 203 0.0 0.0 0.00 0.00 0.00 84 1017.6
20260831135403 82 167 2.0 2.0 0.00 0.00 0.00 84 1017.5
20260831134858 82 173 2.0 2.0 0.00 0.00 0.00 85 1017.3
20260831134354 82 188 0.0 0.0 0.00 0.00 0.00 85 1017.5
20260831133853 82 163 1.0 3.0 0.00 0.00 0.00 85 1017.2
20260831133353 81 154 0.0 0.0 0.00 0.00 0.00 86 1017.3
20260831132849 80 149 2.0 3.0 0.00 0.00 0.00 87 1017.5
20260831132344 80 158 1.0 3.0 0.00 0.00 0.00 86 1017.3
20260831131844 79 158 0.0 0.0 0.00 0.00 0.00 88 1017.3
20260831131340 78 146 0.0 0.0 0.00 0.00 0.00 90 1017.1
20260831130834 77 118 0.0 2.0 0.00 0.00 0.00 92 1017.1
20260831130330 76 142 2.0 2.0 0.00 0.00 0.00 93 1017.1
20260831125829 76 125 3.0 3.0 0.00 0.00 0.00 94 1017.1
20260831125325 75 142 3.0 5.0 0.00 0.00 0.00 94 1017.0
20260831124824 75 140 0.0 0.0 0.00 0.00 0.00 95 1016.9
20260831124321 75 143 0.0 0.0 0.00 0.00 0.00 95 1017.1
20260831123821 75 145 0.0 0.0 0.00 0.00 0.00 96 1016.9
20260831123319 75 144 0.0 0.0 0.00 0.00 0.00 96 1016.9
20260831122815 74 132 0.0 0.0 0.00 0.00 0.00 96 1016.8
20260831122310 75 145 0.0 0.0 0.00 0.00 0.00 95 1016.7
20260831121810 75 141 0.0 0.0 0.00 0.00 0.00 95 1016.7
20260831121307 75 147 0.0 0.0 0.00 0.00 0.00 95 1016.7
20260831120802 75 155 0.0 0.0 0.00 0.00 0.00 95 1016.6
20260831120256 75 154 0.0 0.0 0.00 0.00 0.00 94 1016.6
20260831115751 75 151 0.0 0.0 0.00 0.00 0.00 94 1016.8
20260831115243 75 154 0.0 0.0 0.00 0.00 0.00 94 1016.6
20260831114741 75 152 0.0 0.0 0.00 0.00 0.00 94 1016.7
20260831114240 76 154 0.0 0.0 0.00 0.00 0.00 93 1016.7
20260831113736 76 143 0.0 0.0 0.00 0.00 0.00 93 1016.6
20260831113230 76 149 0.0 0.0 0.00 0.00 0.00 93 1016.5
20260831112729 76 155 0.0 0.0 0.00 0.00 0.00 93 1016.5
20260831112225 76 155 0.0 0.0 0.00 0.00 0.00 92 1016.3
20260831111720 76 148 0.0 0.0 0.00 0.00 0.00 92 1016.7
20260831111217 77 157 0.0 0.0 0.00 0.00 0.00 92 1016.5
20260831110712 77 155 0.0 0.0 0.00 0.00 0.00 92 1016.4
20260831110207 77 150 0.0 0.0 0.00 0.00 0.00 92 1016.2
20260831105706 77 153 0.0 0.0 0.00 0.00 0.00 92 1016.4
20260831105202 77 153 0.0 0.0 0.00 0.00 0.00 92 1016.4
20260831104657 76 154 0.0 0.0 0.00 0.00 0.00 92 1016.3
20260831104154 76 160 0.0 0.0 0.00 0.00 0.00 92 1016.2
20260831103653 76 157 0.0 0.0 0.00 0.00 0.00 92 1016.4
20260831103149 76 159 0.0 0.0 0.00 0.00 0.00 92 1016.2
20260831102648 76 154 0.0 0.0 0.00 0.00 0.00 92 1016.3
20260831102144 76 162 0.0 2.0 0.00 0.00 0.00 92 1016.4
20260831101639 76 155 0.0 0.0 0.00 0.00 0.00 93 1016.5
20260831101135 76 155 0.0 0.0 0.00 0.00 0.00 92 1016.2
20260831100630 76 148 0.0 0.0 0.00 0.00 0.00 92 1016.3
20260831100126 76 157 0.0 0.0 0.00 0.00 0.00 92 1016.3
20260831095624 76 160 0.0 0.0 0.00 0.00 0.00 92 1016.3
20260831095119 76 156 0.0 0.0 0.00 0.00 0.00 91 1016.2
20260831094615 76 164 0.0 0.0 0.00 0.00 0.00 91 1016.1
20260831094111 76 157 0.0 0.0 0.00 0.00 0.00 91 1016.1
20260831093606 76 161 0.0 0.0 0.00 0.00 0.00 90 1016.3
20260831093102 76 158 0.0 2.0 0.00 0.00 0.00 91 1016.1
20260831092558 76 164 0.0 0.0 0.00 0.00 0.00 90 1016.0
20260831092053 76 161 0.0 0.0 0.00 0.00 0.00 90 1016.0
20260831091553 76 162 0.0 0.0 0.00 0.00 0.00 90 1016.0
20260831091049 76 160 0.0 0.0 0.00 0.00 0.00 90 1016.0
20260831090544 76 159 0.0 0.0 0.00 0.00 0.00 89 1016.2
20260831090040 76 155 0.0 0.0 0.00 0.00 0.00 89 1016.0
20260831085535 76 159 0.0 0.0 0.00 0.00 0.00 88 1016.1
20260831085030 76 157 0.0 0.0 0.00 0.00 0.00 88 1016.2
20260831084526 76 156 0.0 0.0 0.00 0.00 0.00 88 1016.2
20260831084023 77 160 0.0 0.0 0.00 0.00 0.00 88 1016.2
20260831083518 77 159 0.0 0.0 0.00 0.00 0.00 87 1016.1
20260831083017 77 162 0.0 0.0 0.00 0.00 0.00 87 1016.0
20260831082512 77 160 0.0 0.0 0.00 0.00 0.00 86 1016.1
20260831082007 77 172 0.0 0.0 0.00 0.00 0.00 86 1016.1
20260831081502 77 164 0.0 0.0 0.00 0.00 0.00 86 1015.9
20260831080958 77 163 0.0 0.0 0.00 0.00 0.00 85 1016.1
20260831080452 77 165 0.0 0.0 0.00 0.00 0.00 85 1016.1
20260831075947 78 156 0.0 0.0 0.00 0.00 0.00 84 1016.1
20260831075443 78 157 0.0 0.0 0.00 0.00 0.00 84 1015.9
20260831074938 78 160 0.0 0.0 0.00 0.00 0.00 83 1016.1
20260831074432 78 161 0.0 0.0 0.00 0.00 0.00 83 1016.0
20260831073927 79 161 0.0 0.0 0.00 0.00 0.00 82 1016.0
20260831073426 79 151 0.0 0.0 0.00 0.00 0.00 82 1016.0
20260831072921 79 151 0.0 0.0 0.00 0.00 0.00 82 1016.2
20260831072417 79 175 0.0 0.0 0.00 0.00 0.00 81 1016.1
20260831071914 79 153 0.0 2.0 0.00 0.00 0.00 81 1016.2
20260831071413 79 151 0.0 0.0 0.00 0.00 0.00 80 1016.2
20260831070912 79 168 0.0 0.0 0.00 0.00 0.00 80 1016.2
20260831070411 80 158 2.0 2.0 0.00 0.00 0.00 79 1016.1
20260831065911 80 160 0.0 0.0 0.00 0.00 0.00 79 1016.3
20260831065409 80 146 0.0 0.0 0.00 0.00 0.00 79 1016.2
20260831064904 80 139 0.0 0.0 0.00 0.00 0.00 78 1016.4
20260831064359 80 153 0.0 0.0 0.00 0.00 0.00 78 1016.2
20260831063855 80 158 0.0 0.0 0.00 0.00 0.00 78 1016.2
20260831063350 80 161 0.0 0.0 0.00 0.00 0.00 78 1016.4
20260831062850 80 121 2.0 2.0 0.00 0.00 0.00 77 1016.4
20260831062345 81 145 2.0 3.0 0.00 0.00 0.00 76 1016.4
20260831061838 81 160 2.0 2.0 0.00 0.00 0.00 76 1016.3
20260831061337 81 149 1.0 2.0 0.00 0.00 0.00 75 1016.1
20260831060834 82 159 0.0 0.0 0.00 0.00 0.00 75 1016.2
20260831060333 82 160 0.0 0.0 0.00 0.00 0.00 74 1016.2
20260831055833 82 163 0.0 0.0 0.00 0.00 0.00 74 1016.2
20260831055328 82 170 4.0 5.0 0.00 0.00 0.00 73 1015.9
20260831054823 82 145 6.0 7.0 0.00 0.00 0.00 73 1016.2
20260831054319 83 157 4.0 5.0 0.00 0.00 0.00 72 1016.1
20260831053818 83 157 3.0 5.0 0.00 0.00 0.00 72 1016.2
20260831053316 83 152 2.0 3.0 0.00 0.00 0.00 72 1016.0
20260831052811 83 137 2.0 3.0 0.00 0.00 0.00 71 1015.9
20260831052310 83 130 0.0 0.0 0.00 0.00 0.00 71 1016.2
20260831051808 83 182 1.0 2.0 0.00 0.00 0.00 71 1016.1
20260831051307 83 160 2.0 2.0 0.00 0.00 0.00 70 1015.9
20260831050802 83 174 2.0 3.0 0.00 0.00 0.00 70 1015.8
20260831050301 84 180 5.0 7.0 0.00 0.00 0.00 69 1016.0
20260831045756 84 181 2.0 3.0 0.00 0.00 0.00 69 1016.0
20260831045250 83 125 4.0 5.0 0.00 0.00 0.00 69 1015.6
20260831044745 83 168 1.0 3.0 0.00 0.00 0.00 68 1015.8
20260831044240 83 154 2.0 3.0 0.00 0.00 0.00 68 1015.8
20260831043736 83 147 0.0 2.0 0.00 0.00 0.00 67 1015.9
20260831043231 83 146 0.0 0.0 0.00 0.00 0.00 67 1015.9
20260831042730 83 156 0.0 0.0 0.00 0.00 0.00 67 1015.7
20260831042225 82 148 0.0 0.0 0.00 0.00 0.00 67 1015.8
20260831041720 82 145 0.0 0.0 0.00 0.00 0.00 67 1015.7
20260831041220 82 144 0.0 0.0 0.00 0.00 0.00 67 1015.8
20260831040715 82 141 0.0 0.0 0.00 0.00 0.00 67 1015.7
20260831040214 83 142 0.0 0.0 0.00 0.00 0.00 66 1015.7
20260831035712 84 134 2.0 3.0 0.00 0.00 0.00 65 1015.7
20260831035207 84 153 2.0 2.0 0.00 0.00 0.00 64 1015.5
20260831034706 84 136 2.0 2.0 0.00 0.00 0.00 63 1015.5
20260831034201 85 172 2.0 3.0 0.00 0.00 0.00 62 1015.4
20260831033657 84 108 1.0 3.0 0.00 0.00 0.00 62 1015.2
20260831033157 84 151 0.0 0.0 0.00 0.00 0.00 62 1015.3
20260831032652 84 150 2.0 2.0 0.00 0.00 0.00 63 1015.2
20260831032147 84 150 0.0 2.0 0.00 0.00 0.00 63 1015.1
20260831031642 84 128 1.0 2.0 0.00 0.00 0.00 63 1015.0
20260831031141 84 138 2.0 2.0 0.00 0.00 0.00 63 1015.1
20260831030640 84 149 0.0 0.0 0.00 0.00 0.00 62 1014.9
20260831030139 84 131 0.0 2.0 0.00 0.00 0.00 62 1014.8
20260831025638 85 141 0.0 0.0 0.00 0.00 0.00 60 1014.9
20260831025133 85 150 0.0 0.0 0.00 0.00 0.00 59 1014.8
20260831024629 85 138 0.0 2.0 0.00 0.00 0.00 59 1014.8
20260831024128 85 150 1.0 3.0 0.00 0.00 0.00 58 1014.7
20260831023626 85 152 0.0 0.0 0.00 0.00 0.00 59 1014.6
20260831023125 84 149 0.0 0.0 0.00 0.00 0.00 59 1014.6
20260831022620 84 120 0.0 2.0 0.00 0.00 0.00 60 1014.4
20260831022115 84 138 0.0 0.0 0.00 0.00 0.00 60 1014.3
20260831021614 85 135 0.0 0.0 0.00 0.00 0.00 59 1014.3
20260831021110 85 133 1.0 2.0 0.00 0.00 0.00 58 1014.1
20260831020607 85 136 0.0 0.0 0.00 0.00 0.00 58 1014.0
20260831015557 86 136 1.0 2.0 0.00 0.00 0.00 56 1014.0
20260831015056 86 142 1.0 2.0 0.00 0.00 0.00 56 1013.9
20260831014551 86 131 2.0 2.0 0.00 0.00 0.00 56 1014.1
20260831014047 87 128 2.0 2.0 0.00 0.00 0.00 55 1013.8
20260831013544 87 140 0.0 0.0 0.00 0.00 0.00 54 1013.9
20260831013043 87 136 0.0 0.0 0.00 0.00 0.00 53 1013.8
20260831012538 87 144 0.0 2.0 0.00 0.00 0.00 53 1013.6
20260831012032 88 135 0.0 2.0 0.00 0.00 0.00 53 1013.6
20260831011526 88 130 1.0 2.0 0.00 0.00 0.00 51 1013.7
20260831011022 89 150 1.0 2.0 0.00 0.00 0.00 51 1013.8
20260831010522 89 117 2.0 2.0 0.00 0.00 0.00 50 1013.7
20260831010019 89 144 0.0 2.0 0.00 0.00 0.00 50 1013.8
20260831005514 90 139 0.0 0.0 0.00 0.00 0.00 49 1013.6
20260831005013 91 135 1.0 2.0 0.00 0.00 0.00 48 1013.6
20260831004510 91 132 2.0 3.0 0.00 0.00 0.00 48 1013.4
20260831004005 91 127 2.0 3.0 0.00 0.00 0.00 47 1013.5
20260831003501 92 142 2.0 3.0 0.00 0.00 0.00 47 1013.5
20260831003000 92 148 4.0 5.0 0.00 0.00 0.00 46 1013.3
20260831002459 93 122 2.0 2.0 0.00 0.00 0.00 46 1013.4
20260831001954 94 159 0.0 2.0 0.00 0.00 0.00 44 1013.4
20260831001449 94 143 2.0 2.0 0.00 0.00 0.00 43 1013.5
20260831000947 95 149 0.0 0.0 0.00 0.00 0.00 41 1013.6
20260831000443 95 134 6.0 9.0 0.00 0.00 0.00 42 1013.5
20260830235940 96 117 6.0 7.0 0.00 0.00 0.00 41 1013.5
20260830235436 96 150 0.0 0.0 0.00 0.00 0.00 41 1013.4
20260830234931 97 160 1.0 2.0 0.00 0.00 0.00 42 1013.7
20260830234426 97 116 4.0 5.0 0.00 0.00 0.00 41 1013.5
20260830233922 97 192 1.0 2.0 0.00 0.00 0.00 40 1013.5
20260830233417 97 168 2.0 2.0 0.00 0.00 0.00 40 1013.5
20260830232913 98 162 4.0 5.0 0.00 0.00 0.00 40 1013.5
20260830232409 98 147 6.0 9.0 0.00 0.00 0.00 39 1013.4
20260830231906 98 143 0.0 0.0 0.00 0.00 0.00 38 1013.5
20260830231400 98 177 1.0 2.0 0.00 0.00 0.00 38 1013.6